• In Deutschland
  • Länderverzeichnis
  • Für 7 Tage
  • Wassertemperatur
  • Satellitenkarten
  • Wetterkarte
  • Widgets
  • user-avatar
    Anmelden

    Stündliche Wetter Rathenow

    Heute, 17 Oktober, Dienstag

    Zeit Temperatur Niederschläge Wind Luftdruck Luftfeuchtigkeit
    00:00 +16°C° 0 mm 3 m/S 763 mmHg 78%
    01:00 +16°C° 0 mm 2 m/S 763 mmHg 76%
    02:00 +16°C° 0 mm 2 m/S 763 mmHg 76%
    03:00 +16°C° 0 mm 2 m/S 763 mmHg 76%
    04:00 +14°C° 0 mm 3 m/S 763 mmHg 76%
    05:00 +14°C° 0 mm 3 m/S 763 mmHg 77%
    06:00 +15°C° 0 mm 2 m/S 763 mmHg 78%
    07:00 +15°C° 0 mm 2 m/S 763 mmHg 79%
    08:00 +16°C° 0 mm 3 m/S 763 mmHg 75%
    09:00 +18°C° 0 mm 3 m/S 763 mmHg 71%
    10:00 +19°C° 0 mm 3 m/S 763 mmHg 67%
    11:00 +20°C° 0 mm 3 m/S 763 mmHg 65%
    12:00 +21°C° 0 mm 3 m/S 763 mmHg 64%
    13:00 +22°C° 0 mm 3 m/S 763 mmHg 63%
    14:00 +23°C° 0 mm 2 m/S 762 mmHg 65%
    15:00 +23°C° 0 mm 2 m/S 762 mmHg 68%
    16:00 +21°C° 0 mm 2 m/S 762 mmHg 70%
    17:00 +20°C° 0 mm 2 m/S 762 mmHg 76%
    18:00 +19°C° 0 mm 1 m/S 761 mmHg 81%
    19:00 +18°C° 0 mm 1 m/S 761 mmHg 87%
    20:00 +18°C° 0 mm 1 m/S 761 mmHg 88%
    21:00 +16°C° 0 mm 1 m/S 761 mmHg 89%
    22:00 +16°C° 0 mm 1 m/S 761 mmHg 90%
    23:00 +15°C° 0 mm 1 m/S 761 mmHg 90%

    Morgen, 18 Oktober, Mittwoch

    Zeit Temperatur Niederschläge Wind Luftdruck Luftfeuchtigkeit
    00:00 +15°C° 0 mm 1 m/S 761 mmHg 91%
    01:00 +14°C° 0 mm 1 m/S 761 mmHg 91%
    02:00 +14°C° 0 mm 1 m/S 760 mmHg 91%
    03:00 +13°C° 0 mm 0 m/S 760 mmHg 91%
    04:00 +13°C° 0 mm 0 m/S 760 mmHg 91%
    05:00 +12°C° 0 mm 0 m/S 759 mmHg 91%
    06:00 +12°C° 0 mm 0 m/S 759 mmHg 91%
    07:00 +12°C° 0 mm 0 m/S 759 mmHg 91%
    08:00 +13°C° 0 mm 0 m/S 759 mmHg 85%
    09:00 +16°C° 0 mm 1 m/S 759 mmHg 79%
    10:00 +19°C° 0 mm 1 m/S 759 mmHg 73%
    11:00 +20°C° 0 mm 1 m/S 759 mmHg 70%
    12:00 +21°C° 0 mm 1 m/S 759 mmHg 67%
    13:00 +22°C° 0 mm 1 m/S 758 mmHg 63%
    14:00 +21°C° 0 mm 1 m/S 758 mmHg 66%
    15:00 +21°C° 0 mm 1 m/S 758 mmHg 68%
    16:00 +21°C° 0 mm 1 m/S 757 mmHg 70%
    17:00 +19°C° 0 mm 1 m/S 757 mmHg 74%
    18:00 +18°C° 0 mm 1 m/S 758 mmHg 79%
    19:00 +16°C° 0 mm 1 m/S 758 mmHg 83%
    20:00 +15°C° 0 mm 1 m/S 758 mmHg 85%
    21:00 +15°C° 0 mm 1 m/S 758 mmHg 86%
    22:00 +14°C° 0 mm 1 m/S 758 mmHg 87%
    23:00 +14°C° 0 mm 1 m/S 758 mmHg 88%

    übermorgen, 19 Oktober, Donnerstag

    Zeit Temperatur Niederschläge Wind Luftdruck Luftfeuchtigkeit
    00:00 +13°C° 0 mm 1 m/S 757 mmHg 88%
    01:00 +13°C° 0 mm 1 m/S 757 mmHg 89%
    02:00 +13°C° 0 mm 1 m/S 757 mmHg 90%
    03:00 +13°C° 0 mm 1 m/S 757 mmHg 90%
    04:00 +12°C° 0 mm 1 m/S 757 mmHg 91%
    05:00 +12°C° 0 mm 1 m/S 757 mmHg 91%
    06:00 +12°C° 0 mm 1 m/S 757 mmHg 92%
    07:00 +12°C° 0 mm 1 m/S 757 mmHg 92%
    08:00 +13°C° 0 mm 1 m/S 757 mmHg 86%
    09:00 +15°C° 0 mm 1 m/S 757 mmHg 79%
    10:00 +17°C° 0 mm 2 m/S 757 mmHg 73%
    11:00 +18°C° 0 mm 2 m/S 757 mmHg 68%
    12:00 +19°C° 0 mm 2 m/S 757 mmHg 64%
    13:00 +20°C° 0 mm 2 m/S 757 mmHg 59%
    14:00 +20°C° 0 mm 2 m/S 757 mmHg 62%
    15:00 +21°C° 0 mm 1 m/S 756 mmHg 64%
    16:00 +20°C° 0 mm 1 m/S 756 mmHg 66%
    17:00 +19°C° 0 mm 1 m/S 756 mmHg 70%
    18:00 +18°C° 0 mm 1 m/S 756 mmHg 74%
    19:00 +15°C° 0 mm 2 m/S 757 mmHg 78%
    20:00 +15°C° 0 mm 2 m/S 757 mmHg 78%
    21:00 +15°C° 0 mm 2 m/S 757 mmHg 79%
    22:00 +15°C° 0 mm 2 m/S 757 mmHg 79%
    23:00 +15°C° 0 mm 2 m/S 757 mmHg 79%

    20 Oktober, Freitag

    Zeit Temperatur Niederschläge Wind Luftdruck Luftfeuchtigkeit
    00:00 +15°C° 0 mm 2 m/S 757 mmHg 79%
    01:00 +15°C° 0 mm 2 m/S 757 mmHg 79%
    02:00 +15°C° 0,1 mm 2 m/S 756 mmHg 79%
    03:00 +14°C° 0,1 mm 3 m/S 756 mmHg 79%
    04:00 +13°C° 0,1 mm 3 m/S 756 mmHg 79%
    05:00 +14°C° 0,1 mm 3 m/S 756 mmHg 79%
    06:00 +14°C° 0,1 mm 3 m/S 756 mmHg 80%
    07:00 +14°C° 0,1 mm 3 m/S 756 mmHg 80%
    08:00 +14°C° 0,3 mm 4 m/S 756 mmHg 80%
    09:00 +15°C° 0,3 mm 4 m/S 756 mmHg 80%
    10:00 +16°C° 0,3 mm 5 m/S 756 mmHg 80%
    11:00 +16°C° 0,7 mm 5 m/S 756 mmHg 80%
    12:00 +16°C° 0,7 mm 5 m/S 756 mmHg 80%
    13:00 +16°C° 0,7 mm 5 m/S 756 mmHg 79%
    14:00 +16°C° 0,1 mm 5 m/S 755 mmHg 80%
    15:00 +16°C° 0,1 mm 5 m/S 755 mmHg 80%
    16:00 +17°C° 0,1 mm 4 m/S 755 mmHg 81%
    17:00 +17°C° 0,3 mm 4 m/S 755 mmHg 82%
    18:00 +15°C° 0,3 mm 4 m/S 755 mmHg 84%
    19:00 +14°C° 0,3 mm 4 m/S 756 mmHg 85%
    20:00 +14°C° 0 mm 4 m/S 756 mmHg 87%
    21:00 +13°C° 0 mm 4 m/S 757 mmHg 89%
    22:00 +12°C° 0 mm 3 m/S 757 mmHg 90%
    23:00 +12°C° 0 mm 3 m/S 757 mmHg 92%

    21 Oktober, Samstag

    Zeit Temperatur Niederschläge Wind Luftdruck Luftfeuchtigkeit
    00:00 +11°C° 0 mm 3 m/S 757 mmHg 93%
    01:00 +12°C° 0 mm 2 m/S 757 mmHg 94%
    02:00 +12°C° 0 mm 2 m/S 757 mmHg 94%
    03:00 +12°C° 0 mm 2 m/S 757 mmHg 95%
    04:00 +12°C° 0 mm 2 m/S 757 mmHg 95%
    05:00 +12°C° 0 mm 2 m/S 757 mmHg 94%
    06:00 +12°C° 0 mm 2 m/S 757 mmHg 94%
    07:00 +12°C° 0 mm 2 m/S 756 mmHg 94%
    08:00 +13°C° 0,2 mm 2 m/S 756 mmHg 92%
    09:00 +14°C° 0,2 mm 2 m/S 756 mmHg 90%
    10:00 +14°C° 0,2 mm 3 m/S 756 mmHg 88%
    11:00 +16°C° 0,2 mm 2 m/S 756 mmHg 87%
    12:00 +16°C° 0,2 mm 2 m/S 756 mmHg 86%
    13:00 +17°C° 0,2 mm 2 m/S 756 mmHg 84%
    14:00 +17°C° 0,4 mm 2 m/S 756 mmHg 86%
    15:00 +17°C° 0,4 mm 2 m/S 755 mmHg 88%
    16:00 +17°C° 0,4 mm 2 m/S 755 mmHg 90%
    17:00 +17°C° 2,5 mm 2 m/S 755 mmHg 92%
    18:00 +16°C° 2,5 mm 2 m/S 755 mmHg 94%
    19:00 +16°C° 2,5 mm 2 m/S 755 mmHg 96%
    20:00 +16°C° 0,8 mm 2 m/S 756 mmHg 96%
    21:00 +15°C° 0,8 mm 2 m/S 756 mmHg 96%
    22:00 +15°C° 0,8 mm 2 m/S 756 mmHg 95%
    23:00 +15°C° 0,1 mm 2 m/S 756 mmHg 94%

    22 Oktober, Sonntag

    Zeit Temperatur Niederschläge Wind Luftdruck Luftfeuchtigkeit
    00:00 +14°C° 0,1 mm 3 m/S 756 mmHg 93%
    01:00 +13°C° 0,1 mm 3 m/S 756 mmHg 92%
    02:00 +13°C° 0 mm 3 m/S 756 mmHg 92%
    03:00 +12°C° 0 mm 3 m/S 755 mmHg 91%
    04:00 +12°C° 0 mm 3 m/S 755 mmHg 90%
    05:00 +12°C° 0 mm 3 m/S 755 mmHg 90%
    06:00 +12°C° 0 mm 3 m/S 755 mmHg 89%
    07:00 +11°C° 0 mm 3 m/S 755 mmHg 88%
    08:00 +12°C° 0 mm 4 m/S 755 mmHg 84%
    09:00 +12°C° 0 mm 4 m/S 755 mmHg 81%
    10:00 +12°C° 0 mm 4 m/S 755 mmHg 78%
    11:00 +12°C° 0 mm 5 m/S 755 mmHg 74%
    12:00 +13°C° 0 mm 5 m/S 755 mmHg 71%
    13:00 +13°C° 0 mm 5 m/S 755 mmHg 67%
    14:00 +12°C° 0,1 mm 5 m/S 755 mmHg 68%
    15:00 +12°C° 0,1 mm 4 m/S 755 mmHg 69%
    16:00 +12°C° 0,1 mm 4 m/S 755 mmHg 70%
    17:00 +11°C° 0 mm 4 m/S 755 mmHg 73%
    18:00 +10°C° 0 mm 4 m/S 755 mmHg 75%
    19:00 +8°C° 0 mm 4 m/S 755 mmHg 78%
    20:00 +8°C° 0,1 mm 4 m/S 755 mmHg 81%
    21:00 +8°C° 0,1 mm 4 m/S 755 mmHg 83%
    22:00 +8°C° 0,1 mm 5 m/S 755 mmHg 85%
    23:00 +8°C° 0,1 mm 5 m/S 756 mmHg 86%
    Mehr zeigen